FW5345 Weather Reports


time (UTC)temp
C
wind
direction
speed
KPH
gust
KPH
rain 1hr
cm
rain 24hr
cm
rain mn
cm
humidity
%
barometer
mb
20260510001535 23 310 6.4 12.9 0.00 0.00 0.00 38 1017.2
20260510000036 23 317 6.4 12.9 0.00 0.00 0.00 38 1017.3
20260509234534 23 319 8.0 14.5 0.00 0.00 0.00 39 1017.5
20260509233035 23 337 8.0 14.5 0.00 0.00 0.00 39 1017.6
20260509231536 22 300 6.4 16.1 0.00 0.00 0.00 41 1018.1
20260509224531 22 329 6.4 14.5 0.00 0.00 0.00 40 1018.4
20260509223031 22 338 4.8 14.5 0.00 0.00 0.00 41 1018.7
20260509221642 22 327 6.4 16.1 0.00 0.00 0.00 42 1018.9
20260509220036 21 305 8.0 17.7 0.00 0.00 0.00 44 1019.0
20260509214533 21 326 8.0 16.1 0.00 0.00 0.00 46 1019.1
20260509213035 21 322 6.4 17.7 0.00 0.00 0.00 48 1019.3
20260509211536 21 325 4.8 11.3 0.00 0.00 0.00 49 1019.5
20260509210034 21 329 8.0 17.7 0.00 0.00 0.00 49 1019.7
20260509203151 20 333 6.4 16.1 0.00 0.00 0.00 52 1019.9
20260509201533 20 329 8.0 14.5 0.00 0.00 0.00 53 1020.1
20260509200035 19 341 4.8 12.9 0.00 0.00 0.00 54 1020.3
20260509194642 18 339 6.4 16.1 0.00 0.00 0.00 55 1020.5
20260509193032 18 2 8.0 14.5 0.00 0.00 0.00 54 1020.6
20260509191534 18 346 6.4 12.9 0.00 0.00 0.00 54 1020.7
20260509190035 18 315 6.4 14.5 0.00 0.00 0.00 55 1020.9
20260509183119 17 358 6.4 12.9 0.00 0.00 0.00 56 1021.3
20260509180028 17 16 6.4 11.3 0.00 0.00 0.00 55 1021.3
20260509174535 16 339 4.8 12.9 0.00 0.00 0.00 53 1021.3
20260509173036 16 323 4.8 12.9 0.00 0.00 0.00 57 1021.4
20260509171535 15 311 6.4 12.9 0.00 0.00 0.00 57 1021.5
20260509170037 15 353 4.8 11.3 0.00 0.00 0.00 57 1021.6
20260509164535 14 326 4.8 9.7 0.00 0.00 0.00 55 1021.7
20260509161642 13 339 3.2 8.0 0.00 0.00 0.00 59 1021.8
20260509160032 12 341 3.2 8.0 0.00 0.00 0.00 62 1021.8
20260509154536 11 348 3.2 6.4 0.00 0.00 0.00 65 1021.9
20260509153033 11 347 3.2 4.8 0.00 0.00 0.00 66 1021.8
20260509150035 10 136 1.6 4.8 0.00 0.00 0.00 69 1021.6
20260509144642 9 112 3.2 6.4 0.00 0.00 0.00 72 1021.6
20260509143032 8 129 3.2 6.4 0.00 0.00 0.00 75 1021.6
20260509141533 7 157 1.6 3.2 0.00 0.00 0.00 78 1021.5
20260509134537 5 145 6.4 9.7 0.00 0.00 0.00 84 1021.3
20260509133034 3 155 6.4 8.0 0.00 0.00 0.00 86 1021.3
20260509131536 4 150 4.8 6.4 0.00 0.00 0.00 82 1021.3
20260509130033 5 157 3.2 6.4 0.00 0.00 0.00 80 1021.0
20260509123033 5 135 3.2 6.4 0.00 0.00 0.00 81 1020.9
20260509120030 5 157 4.8 9.7 0.00 0.00 0.00 83 1020.9
20260509110110 6 128 4.8 8.0 0.00 0.00 0.00 82 1021.0
20260509104535 6 123 4.8 6.4 0.00 0.00 0.00 83 1021.0
20260509103036 6 150 4.8 12.9 0.00 0.00 0.00 83 1021.1
20260509101530 6 142 4.8 8.0 0.00 0.00 0.00 83 1021.2
20260509100035 6 130 4.8 8.0 0.00 0.00 0.00 83 1021.3
20260509094643 7 149 6.4 8.0 0.00 0.00 0.00 81 1021.4
20260509093035 7 154 4.8 9.7 0.00 0.00 0.00 80 1021.6
20260509091533 8 135 3.2 6.4 0.00 0.00 0.00 78 1021.7
20260509090108 8 159 8.0 14.5 0.00 0.00 0.00 77 1021.8
20260509084610 8 131 8.0 14.5 0.00 0.00 0.00 78 1022.0
20260509083034 7 131 6.4 12.9 0.00 0.00 0.00 80 1022.2
20260509081535 8 151 4.8 9.7 0.00 0.00 0.00 79 1022.3
20260509073108 8 152 4.8 11.3 0.00 0.00 0.00 81 1022.8
20260509070109 8 175 6.4 9.7 0.00 0.00 0.00 78 1022.8
20260509063034 11 172 3.2 8.0 0.00 0.00 0.00 71 1023.0
20260509061642 12 257 0.0 3.2 0.00 0.00 0.00 67 1022.9
20260509054532 12 47 1.6 6.4 0.00 0.00 0.00 66 1022.9
20260509051542 12 74 4.8 8.0 0.00 0.00 0.00 65 1022.8
20260509050111 12 31 3.2 6.4 0.00 0.00 0.00 64 1022.7
20260509044529 12 324 3.2 11.3 0.00 0.00 0.00 64 1022.6
20260509043036 12 291 3.2 16.1 0.00 0.00 0.00 64 1022.5
20260509041533 12 306 1.6 8.0 0.00 0.00 0.00 62 1022.4
20260509034532 13 265 1.6 12.9 0.00 0.00 0.00 60 1022.1
20260509033108 13 226 1.6 9.7 0.00 0.00 0.00 59 1021.9
20260509030034 14 276 3.2 16.1 0.00 0.00 0.00 56 1021.6
20260509024534 15 283 6.4 17.7 0.00 0.00 0.00 53 1021.5
20260509023037 15 278 6.4 16.1 0.00 0.00 0.00 51 1021.4
20260509021534 16 287 6.4 20.9 0.00 0.00 0.00 48 1021.3
20260509013036 17 274 9.7 27.4 0.00 0.00 0.00 42 1021.1
20260509011534 17 265 8.0 20.9 0.00 0.00 0.00 40 1021.1
20260509010029 17 264 6.4 24.1 0.00 0.00 0.00 40 1021.1
20260509004537 17 288 9.7 24.1 0.00 0.00 0.00 39 1020.9